Home > Time Zones > World Clock > Weather > Japan > Naha > Past weeks

Flag for Japan Weather past 2 weeks in Naha, Okinawa, Japan

Now
81 °F

Broken clouds.


Feels Like: 87 °F
Forecast: 79 / 87 °F
Wind: 8 mph from West

Location: Naha Airport

Current Time: May 29, 2015 at 5:40:04 PM

Latest Report: May 29, 2015 at 5:00 PM


Visibility: N/A

Pressure: 29.68 "Hg

Humidity: 89%

Dew point: 77 °F

Location of NahaLocation

Historic Weather in Naha — Graph

°F

Naha temperature yesterday

Maximum temperature yesterday: 79 °F (at 9:30 AM)
Minimum temperature yesterday: 75 °F (at 12:00 AM)
Average temperature yesterday: 77 °F

Past Weeks' High & Low Weather Summary

 TemperatureHumidityPressure
High84 °F (May 15, 12:00 PM)100% (May 14, 11:30 PM)30.01 "Hg (May 14, 11:30 PM)
Low66 °F (May 22, 12:30 AM)54% (May 21, 1:00 PM)29.59 "Hg (May 28, 1:45 PM)
Average77 °F89%29.79 "Hg
* Reported May 14 4:00 PM — May 29 4:30 PM, Naha, Weather by CustomWeather, © 2015

Note: Actual official high and low records may vary slightly from our data, if they occured in-between our weather recording intervals... More about our weather records

Advertising

Naha weather history for previous 24 hours

 ConditionsComfort  
Time TempWeatherWind HumidityBarometerVisibility
4:30 PM
Fri, May 29
81 °FBroken clouds.8 mph89%29.68 "HgN/A
4:00 PM81 °FBroken clouds.8 mph89%29.68 "HgN/A
3:30 PM81 °FBroken clouds.9 mph89%29.68 "HgN/A
3:00 PM81 °FScattered showers. Partly sunny.7 mph94%29.68 "HgN/A
2:30 PM81 °FScattered showers. Broken clouds.6 mph94%29.68 "HgN/A
2:00 PM79 °FBroken clouds.7 mph94%29.68 "HgN/A
1:30 PM79 °FSprinkles. Broken clouds.12 mph94%29.68 "Hg4 mi
1:00 PM82 °FScattered showers. Broken clouds.9 mph84%29.71 "Hg4 mi
12:30 PM82 °FPartly sunny.8 mph84%29.71 "Hg4 mi
12:00 PM82 °FPartly sunny.10 mph84%29.71 "Hg4 mi
11:30 AM84 °FScattered clouds.7 mph79%29.71 "Hg4 mi
11:00 AM82 °FPartly sunny.7 mph84%29.71 "Hg4 mi
10:30 AM82 °FPartly sunny.7 mph84%29.71 "Hg4 mi
10:00 AM82 °FPassing clouds.6 mph84%29.71 "Hg4 mi
9:30 AM82 °FPassing clouds.5 mph84%29.71 "Hg4 mi
9:00 AM82 °FPassing clouds.7 mph84%29.68 "Hg4 mi
8:30 AM81 °FScattered clouds.6 mph89%29.71 "Hg4 mi
8:00 AM81 °FPassing clouds.7 mph89%29.68 "Hg4 mi
7:00 AM79 °FPartly sunny.7 mph94%29.68 "Hg4 mi
6:30 AM77 °FScattered clouds.7 mph100%29.68 "Hg4 mi
6:00 AM79 °FScattered clouds.7 mph89%29.65 "Hg4 mi
5:30 AM77 °FPassing clouds.5 mph94%29.65 "Hg4 mi
5:00 AM79 °FPartly cloudy.6 mph89%29.65 "Hg4 mi
4:30 AM77 °FPartly cloudy.3 mph94%29.65 "Hg4 mi
4:00 AM77 °FPassing clouds.5 mph94%29.65 "Hg4 mi
3:30 AM77 °FPassing clouds.6 mph94%29.65 "Hg4 mi
3:00 AM77 °FPassing clouds.6 mph94%29.65 "Hg4 mi
2:46 AM79 °FPassing clouds.8 mph94%29.65 "Hg4 mi
2:30 AM79 °FPassing clouds.7 mph94%29.65 "Hg4 mi
2:00 AM79 °FPartly cloudy.7 mph94%29.65 "Hg5 mi
1:30 AM79 °FPassing clouds.8 mph94%29.65 "Hg6 mi
1:00 AM79 °FPartly cloudy.8 mph94%29.65 "Hg6 mi
12:30 AM79 °FPassing clouds.9 mph94%29.65 "Hg5 mi
12:00 AM79 °FPartly cloudy.8 mph94%29.65 "Hg6 mi
11:30 PM
Thu, May 28
79 °FPassing clouds.9 mph94%29.65 "HgN/A
11:00 PM79 °FPassing clouds.10 mph94%29.65 "HgN/A
10:30 PM79 °FPassing clouds.13 mph94%29.65 "HgN/A
10:00 PM79 °FPassing clouds.14 mph94%29.65 "HgN/A
9:30 PM79 °FPassing clouds.13 mph94%29.62 "HgN/A
9:00 PM79 °FPassing clouds.10 mph94%29.62 "HgN/A
8:30 PM79 °FPassing clouds.6 mph94%29.62 "HgN/A
8:00 PM77 °FPassing clouds.7 mph100%29.62 "HgN/A
7:30 PM77 °FPassing clouds.9 mph100%29.62 "HgN/A
7:00 PM79 °FPartly sunny.7 mph94%29.62 "Hg6 mi
6:30 PM79 °FSprinkles. Broken clouds.6 mph94%29.59 "HgN/A
6:00 PM79 °FSprinkles. Broken clouds.9 mph94%29.59 "Hg6 mi
5:30 PM79 °FLots of rain. Broken clouds.14 mph94%29.59 "Hg4 mi
5:00 PM77 °FThunderstorms. Broken clouds.16 mph100%29.59 "Hg5 mi
Weather by CustomWeather, © 2015

See weather overviewHow to use our weather pages